Weather History for Manning, SC

Change the Weather History Date:

Monday, November 5, 2012

  Actual Average (KCKI) Record (KCKI)
Temperature  
Mean Temperature 54 °F -  
Max Temperature 64 °F 70 °F 64 °F (2013)
Min Temperature 44 °F 42 °F 41 °F (2010)
Degree Days  
Heating Degree Days 11    
Growing Degree Days 4 (Base 50)    
Moisture  
Dew Point 42 °F    
Average Humidity 67    
Maximum Humidity 94    
Minimum Humidity 32    
Precipitation  
Precipitation 0.00 in - - ()
Sea Level Pressure  
Sea Level Pressure 30.02 in    
Wind  
Wind Speed 4 mph (NNE)    
Max Wind Speed 9 mph    
Max Gust Speed 24 mph    
Visibility 10 miles    
Events      
Averages and records for this station are not official NWS values.
T = Trace of Precipitation, MM = Missing Value Source: NWS Daily Summary

Daily Weather History Graph

Daily Weather History Graph

Search for Another Location

Airport:

Trip Planner

Search our weather history database for the weather conditions in past years. The results will help you decide how hot, cold, wet, or windy it might be!

Date:

Astronomy

Nov. 05, 2012 Rise Set
Actual Time 6:43 AM EST 5:24 PM EST
Civil Twilight 6:17 AM EST 5:50 PM EST
Nautical Twilight 5:48 AM EST 6:20 PM EST
Astronomical Twilight 5:18 AM EST 6:49 PM EST
Moon 11:00 PM EST (11/5) 12:01 PM EST (11/5)
Length of Visible Light 11h 32m
Length of Day
10h 40m
Waning Gibbous, 63% of the Moon is Illuminated
Nov 5
Waning Gibbous
Nov 6
Last Quarter
Nov 13
New
Nov 20
First Quarter
Nov 28
Full

Hourly Weather History & Observations

Time (EST) Temp. Dew Point Humidity Pressure Visibility Wind Dir Wind Speed Gust Speed Precip Events Conditions
12:15 AM 55.4 °F 53.6 °F 94% 29.96 in 10.0 mi NE 3.5 mph - N/A   Mostly Cloudy
12:35 AM 55.4 °F 51.8 °F 88% 29.97 in 10.0 mi NE 3.5 mph - N/A   Scattered Clouds
12:55 AM 55.4 °F 51.8 °F 88% 29.96 in 10.0 mi NE 6.9 mph - N/A   Mostly Cloudy
1:15 AM 53.6 °F 50.0 °F 88% 29.96 in 10.0 mi NE 4.6 mph - N/A   Scattered Clouds
1:35 AM 53.6 °F 50.0 °F 88% 29.97 in 10.0 mi NNE 4.6 mph - N/A   Scattered Clouds
1:55 AM 53.6 °F 50.0 °F 88% 29.97 in 10.0 mi NNE 3.5 mph - N/A   Scattered Clouds
2:15 AM 53.6 °F 50.0 °F 88% 29.96 in 10.0 mi Calm Calm - N/A   Scattered Clouds
2:35 AM 51.8 °F 48.2 °F 88% 29.97 in 10.0 mi Calm Calm - N/A   Scattered Clouds
2:55 AM 51.8 °F 50.0 °F 94% 29.97 in 10.0 mi Calm Calm - N/A   Clear
3:15 AM 51.8 °F 44.6 °F 76% 29.97 in 10.0 mi NNE 3.5 mph - N/A   Clear
3:35 AM 51.8 °F 44.6 °F 76% 29.97 in 10.0 mi NNE 3.5 mph - N/A   Clear
3:55 AM 50.0 °F 48.2 °F 94% 29.97 in 10.0 mi North 4.6 mph - N/A   Clear
4:15 AM 50.0 °F 46.4 °F 87% 29.98 in 10.0 mi North 4.6 mph - N/A   Clear
4:35 AM 50.0 °F 46.4 °F 87% 29.99 in 10.0 mi North 4.6 mph - N/A   Clear
4:55 AM 50.0 °F 48.2 °F 94% 30.00 in 10.0 mi NNE 5.8 mph - N/A   Mostly Cloudy
5:15 AM 50.0 °F 46.4 °F 87% 30.00 in 10.0 mi NNE 6.9 mph - N/A   Mostly Cloudy
5:35 AM 50.0 °F 46.4 °F 87% 30.00 in 10.0 mi North 5.8 mph - N/A   Overcast
5:55 AM 50.0 °F 46.4 °F 87% 30.02 in 10.0 mi North 8.1 mph - N/A   Overcast
6:15 AM 50.0 °F 46.4 °F 87% 30.02 in 10.0 mi North 5.8 mph - N/A   Overcast
6:55 AM 50.0 °F 46.4 °F 87% 30.03 in 10.0 mi North 4.6 mph - N/A   Overcast
7:15 AM 50.0 °F 46.4 °F 87% 30.04 in 10.0 mi NNE 3.5 mph - N/A   Overcast
7:35 AM 50.0 °F 46.4 °F 87% 30.05 in 10.0 mi NNE 3.5 mph - N/A   Mostly Cloudy
8:15 AM 50.0 °F 44.6 °F 82% 30.06 in 10.0 mi NNE 8.1 mph - N/A   Mostly Cloudy
8:35 AM 51.8 °F 44.6 °F 76% 30.06 in 10.0 mi NNE 6.9 mph - N/A   Scattered Clouds
8:55 AM 53.6 °F 42.8 °F 67% 30.07 in 10.0 mi NNE 9.2 mph - N/A   Scattered Clouds
9:15 AM 53.6 °F 42.8 °F 67% 30.07 in 10.0 mi NNE 8.1 mph - N/A   Clear
9:35 AM 55.4 °F 41.0 °F 58% 30.07 in 10.0 mi NNE 9.2 mph 16.1 mph N/A   Clear
9:55 AM 55.4 °F 41.0 °F 58% 30.07 in 10.0 mi NE 9.2 mph - N/A   Clear
10:15 AM 57.2 °F 41.0 °F 55% 30.07 in 10.0 mi North 8.1 mph - N/A   Clear
10:35 AM 59.0 °F 41.0 °F 51% 30.07 in 10.0 mi NE 5.8 mph - N/A   Clear
10:55 AM 59.0 °F 41.0 °F 51% 30.06 in 10.0 mi NNE 9.2 mph - N/A   Clear
11:15 AM 60.8 °F 41.0 °F 48% 30.06 in 10.0 mi NE 8.1 mph - N/A   Clear
11:35 AM 60.8 °F 37.4 °F 42% 30.06 in 10.0 mi North 8.1 mph - N/A   Clear
11:55 AM 62.6 °F 37.4 °F 39% 30.05 in 10.0 mi North 9.2 mph 17.3 mph N/A   Clear
12:15 PM 62.6 °F 37.4 °F 39% 30.04 in 10.0 mi North 5.8 mph - N/A   Clear
12:35 PM 62.6 °F 37.4 °F 39% 30.03 in 10.0 mi North 8.1 mph - N/A   Clear
12:55 PM 62.6 °F 37.4 °F 39% 30.02 in 10.0 mi NNW 9.2 mph - N/A   Clear
1:15 PM 64.4 °F 37.4 °F 37% 30.02 in 10.0 mi North 6.9 mph - N/A   Clear
1:35 PM 64.4 °F 37.4 °F 37% 30.02 in 10.0 mi North 8.1 mph - N/A   Clear
1:55 PM 64.4 °F 35.6 °F 34% 30.02 in 10.0 mi North 8.1 mph - N/A   Clear
2:15 PM 64.4 °F 35.6 °F 34% 30.01 in 10.0 mi NNE 8.1 mph 24.2 mph N/A   Clear
2:35 PM 64.4 °F 35.6 °F 34% 30.00 in 10.0 mi North 9.2 mph - N/A   Clear
2:55 PM 64.4 °F 33.8 °F 32% 30.00 in 10.0 mi North 5.8 mph - N/A   Clear
3:15 PM 64.4 °F 33.8 °F 32% 30.00 in 10.0 mi North 6.9 mph - N/A   Clear
3:35 PM 64.4 °F 35.6 °F 34% 30.00 in 10.0 mi NE 8.1 mph - N/A   Clear
3:55 PM 64.4 °F 35.6 °F 34% 30.01 in 10.0 mi NNE 5.8 mph - N/A   Clear
4:15 PM 64.4 °F 35.6 °F 34% 30.00 in 10.0 mi North 3.5 mph - N/A   Clear
4:35 PM 62.6 °F 35.6 °F 37% 30.01 in 10.0 mi Calm Calm - N/A   Clear
4:55 PM 62.6 °F 37.4 °F 39% 30.01 in 10.0 mi Calm Calm - N/A   Clear
5:15 PM 59.0 °F 41.0 °F 51% 30.01 in 10.0 mi Calm Calm - N/A   Clear
5:35 PM 55.4 °F 41.0 °F 58% 30.01 in 10.0 mi Calm Calm - N/A   Clear
5:55 PM 51.8 °F 41.0 °F 67% 30.01 in 10.0 mi Calm Calm - N/A   Clear
6:15 PM 50.0 °F 41.0 °F 71% 30.02 in 10.0 mi Calm Calm - N/A   Clear
6:35 PM 50.0 °F 41.0 °F 71% 30.03 in 10.0 mi Calm Calm - N/A   Clear
6:55 PM 48.2 °F 41.0 °F 76% 30.04 in 10.0 mi Calm Calm - N/A   Clear
7:15 PM 46.4 °F 41.0 °F 81% 30.05 in 10.0 mi Calm Calm - N/A   Clear
7:35 PM 44.6 °F 41.0 °F 87% 30.04 in 10.0 mi Calm Calm - N/A   Clear
7:55 PM 44.6 °F 41.0 °F 87% 30.05 in 10.0 mi Calm Calm - N/A   Clear
8:15 PM 44.6 °F 41.0 °F 87% 30.05 in 10.0 mi Calm Calm - N/A   Clear
8:35 PM 44.6 °F 41.0 °F 87% 30.05 in 10.0 mi Calm Calm - N/A   Clear
9:15 PM 46.4 °F 41.0 °F 81% 30.07 in 10.0 mi Calm Calm - N/A   Clear
9:35 PM 48.2 °F 42.8 °F 82% 30.06 in 10.0 mi ENE 4.6 mph - N/A   Clear
9:55 PM 50.0 °F 42.8 °F 76% 30.06 in 10.0 mi ENE 3.5 mph - N/A   Clear
10:15 PM 51.8 °F 41.0 °F 67% 30.06 in 10.0 mi ENE 4.6 mph - N/A   Clear
10:35 PM 50.0 °F 41.0 °F 71% 30.05 in 10.0 mi ENE 3.5 mph - N/A   Clear
11:15 PM 50.0 °F 41.0 °F 71% 30.06 in 10.0 mi Calm Calm - N/A   Clear
11:35 PM 48.2 °F 41.0 °F 76% 30.05 in 10.0 mi Calm Calm - N/A   Clear
11:55 PM 46.4 °F 41.0 °F 81% 30.05 in 10.0 mi Calm Calm - N/A   Clear